Location: L�Ave Maria
(50.7161°N, 1.5911°E)
Time: 23:53:12
(UTC+00:00)

YAOGAN 11 - Pass Details

Date: 10 July 2020
Orbit: 614 x 668 km, 98.3° (Epoch: 14 August)

Event Time Altitude Azimuth Distance (km) Brightness Sun altitude
Exits shadow 23:32:02 27° 140° (SE) 1,228 5.1 -17.0°
Maximum altitude 23:34:17 59° 70° (ENE) 746 4.5 -17.0°
Drops below altitude 10° 23:38:42 10° 352° (N) 2,062 8.1 -17.1°
Sets 23:40:57 0° 349° (N) 2,986 9.3 -17.1°
